IZ2OSD Weather Reports


time (UTC)temp
C
wind
direction
speed
KPH
gust
KPH
rain 1hr
cm
rain 24hr
cm
rain mn
cm
humidity
%
barometer
mb
20221207234905 1 0.0 0.0 0.00 0.03 0.00 95 1010.6
20221207233901 1 0.0 0.0 0.00 0.03 0.00 96 1010.8
20221207232858 1 0.0 0.0 0.00 0.03 0.00 96 1010.9
20221207231856 1 0.0 0.0 0.00 0.03 0.00 96 1011.0
20221207230852 1 0.0 0.0 0.00 0.03 0.00 96 1010.8
20221207225848 1 0.0 0.0 0.00 0.03 0.03 96 1011.0
20221207224846 1 0.0 0.0 0.00 0.03 0.03 96 1010.9
20221207223902 0 0.0 0.0 0.00 0.03 0.03 96 1010.9
20221207222838 0 0.0 0.0 0.00 0.03 0.03 96 1011.0
20221207221835 0 0.0 0.0 0.00 0.03 0.03 96 1010.9
20221207220832 1 0.0 0.0 0.00 0.03 0.03 97 1011.0
20221207215829 1 0.0 0.0 0.00 0.03 0.03 97 1011.0
20221207214825 1 0.0 0.0 0.00 0.03 0.03 97 1010.7
20221207213821 1 0.0 0.0 0.00 0.03 0.03 97 1010.8
20221207212818 1 0.0 0.0 0.00 0.03 0.03 97 1010.8
20221207211814 1 0.0 0.0 0.00 0.03 0.03 97 1011.0
20221207210811 1 0.0 0.0 0.00 0.03 0.03 97 1011.1
20221207205807 1 0.0 0.0 0.00 0.03 0.03 97 1011.1
20221207204803 1 0.0 0.0 0.00 0.03 0.03 97 1011.0
20221207203801 1 0.0 0.0 0.00 0.03 0.03 97 1010.9
20221207202818 1 0.0 0.0 0.00 0.03 0.03 97 1011.0
20221207201755 1 0.0 0.0 0.00 0.03 0.03 97 1011.0
20221207200812 1 0.0 0.0 0.00 0.03 0.03 97 1011.1
20221207195809 0 0.0 0.0 0.00 0.03 0.03 96 1010.7
20221207194825 0 0.0 0.0 0.00 0.03 0.03 96 1010.9
20221207193802 0 0.0 0.0 0.00 0.03 0.03 96 1010.7
20221207192737 0 0.0 0.0 0.00 0.03 0.03 96 1011.0
20221207191734 1 0.0 0.0 0.00 0.03 0.03 96 1010.9
20221207190730 1 0.0 0.0 0.00 0.03 0.03 95 1010.9
20221207185727 1 0.0 0.0 0.00 0.03 0.03 95 1010.8
20221207184745 1 0.0 0.0 0.00 0.03 0.03 95 1010.7
20221207183720 1 0.0 0.0 0.00 0.03 0.03 94 1010.6
20221207182737 1 0.0 0.0 0.00 0.03 0.03 93 1010.5
20221207181714 2 0.0 0.0 0.00 0.03 0.03 93 1010.5
20221207180711 2 0.0 0.0 0.00 0.03 0.03 92 1010.3
20221207175707 2 0.0 0.0 0.00 0.03 0.03 91 1010.4
20221207174704 2 0.0 0.0 0.00 0.03 0.03 91 1010.5
20221207173700 2 0.0 0.0 0.00 0.03 0.03 91 1010.2
20221207172657 2 0.0 0.0 0.00 0.03 0.03 91 1010.3
20221207171653 2 0.0 0.0 0.00 0.03 0.03 91 1010.3
20221207170650 3 0.0 0.0 0.00 0.03 0.03 91 1010.3
20221207165647 3 0.0 0.0 0.00 0.03 0.03 90 1010.3
20221207164642 3 0.0 0.0 0.00 0.03 0.03 90 1010.3
20221207163639 3 0.0 0.0 0.00 0.03 0.03 89 1010.4
20221207162636 3 0.0 0.0 0.00 0.03 0.03 88 1010.4
20221207161632 3 0.0 0.0 0.00 0.03 0.03 88 1010.4
20221207160629 3 0.0 0.0 0.00 0.03 0.03 87 1010.1
20221207155746 4 0.0 0.0 0.00 0.03 0.03 86 1010.4
20221207154641 5 0.0 0.0 0.00 0.03 0.03 85 1010.3
20221207153619 5 0.0 0.0 0.00 0.03 0.03 84 1010.2
20221207152613 5 0.0 0.0 0.00 0.03 0.03 82 1010.1
20221207151613 5 0.0 0.0 0.00 0.03 0.03 81 1010.0
20221207150607 6 0.0 0.0 0.00 0.03 0.03 80 1009.9
20221207145605 6 0.0 0.0 0.00 0.03 0.03 78 1010.0
20221207144601 6 0.0 0.0 0.00 0.03 0.03 77 1010.0
20221207143559 6 0.0 0.0 0.00 0.03 0.03 76 1009.9
20221207142555 7 0.0 0.0 0.00 0.03 0.03 76 1010.0
20221207141552 7 0.0 1.6 0.00 0.03 0.03 76 1009.7
20221207140548 7 315 0.0 1.6 0.00 0.03 0.03 76 1010.0
20221207134538 7 0.0 1.6 0.00 0.03 0.03 74 1009.8
20221207133535 7 0.0 1.6 0.00 0.03 0.03 74 1010.0
20221207132531 7 0.0 1.6 0.00 0.03 0.03 74 1010.3
20221207131528 7 0.0 1.6 0.00 0.03 0.03 74 1010.1
20221207130525 7 292 0.0 1.6 0.00 0.03 0.03 74 1010.3
20221207125522 7 0.0 0.0 0.00 0.03 0.03 75 1010.2
20221207124520 7 0.0 1.6 0.00 0.03 0.03 74 1010.4
20221207123519 7 0.0 0.0 0.00 0.03 0.03 73 1010.5
20221207122515 8 0.0 1.6 0.00 0.03 0.03 72 1010.6
20221207121513 7 315 0.0 1.6 0.00 0.03 0.03 72 1010.7
20221207120510 8 0.0 1.6 0.00 0.03 0.03 71 1010.8
20221207115529 8 0.0 1.6 0.00 0.03 0.03 70 1010.9
20221207114506 7 0.0 1.6 0.00 0.03 0.03 72 1011.0
20221207113503 7 292 0.0 1.6 0.00 0.03 0.03 72 1011.0
20221207112500 7 0.0 1.6 0.00 0.03 0.03 72 1011.1
20221207111459 8 0.0 1.6 0.00 0.03 0.03 67 1011.3
20221207110453 8 0.0 1.6 0.00 0.03 0.03 67 1011.2
20221207105451 7 0.0 0.0 0.00 0.03 0.03 72 1011.2
20221207104447 7 0.0 0.0 0.00 0.03 0.03 70 1011.4
20221207103442 7 0.0 1.6 0.00 0.03 0.03 70 1011.6
20221207102457 7 292 0.0 1.6 0.00 0.03 0.03 72 1011.8
20221207101433 6 0.0 1.6 0.00 0.03 0.03 74 1011.7
20221207100429 6 0.0 1.6 0.00 0.03 0.03 74 1011.6
20221207095426 5 292 0.0 1.6 0.00 0.03 0.03 77 1011.7
20221207094422 5 292 0.0 1.6 0.00 0.03 0.03 77 1011.8
20221207093419 5 0.0 1.6 0.00 0.03 0.03 78 1011.9
20221207092435 6 0.0 0.0 0.00 0.03 0.03 76 1012.0
20221207091411 5 0.0 0.0 0.00 0.03 0.03 75 1011.9
20221207090429 5 0.0 0.0 0.00 0.03 0.03 77 1011.9
20221207085404 5 0.0 0.0 0.00 0.03 0.03 80 1011.8
20221207084401 4 0.0 0.0 0.00 0.03 0.03 81 1011.8
20221207083357 4 0.0 1.6 0.00 0.03 0.03 81 1011.7
20221207082353 3 0.0 0.0 0.00 0.03 0.03 83 1011.7
20221207081350 3 0.0 1.6 0.03 0.03 0.03 83 1011.7
20221207080346 2 0.0 0.0 0.03 0.03 0.03 86 1011.6
20221207075343 2 0.0 0.0 0.03 0.03 0.03 89 1011.5
20221207074400 1 0.0 0.0 0.03 0.03 0.03 91 1011.3
20221207073336 1 0.0 0.0 0.03 0.03 0.03 92 1011.3
20221207072337 1 0.0 0.0 0.03 0.03 0.03 93 1011.2
20221207071329 0 0.0 0.0 0.00 0.00 0.00 94 1011.2
20221207070325 0 0.0 0.0 0.00 0.00 0.00 94 1011.2
20221207065322 0 0.0 0.0 0.00 0.00 0.00 94 1011.3
20221207064318 0 0.0 0.0 0.00 0.00 0.00 95 1010.7
20221207063314 0 0.0 0.0 0.00 0.00 0.00 95 1011.0
20221207062311 0 0.0 0.0 0.00 0.00 0.00 95 1011.2
20221207061307 0 0.0 0.0 0.00 0.00 0.00 95 1010.8
20221207060324 0 0.0 0.0 0.00 0.00 0.00 94 1011.1
20221207055300 0 0.0 0.0 0.00 0.00 0.00 94 1011.2
20221207054319 0 0.0 0.0 0.00 0.00 0.00 94 1010.9
20221207053254 0 0.0 0.0 0.00 0.00 0.00 94 1010.9
20221207052252 0 0.0 0.0 0.00 0.00 0.00 93 1011.0
20221207051248 0 0.0 0.0 0.00 0.00 0.00 93 1010.8
20221207050325 0 0.0 0.0 0.00 0.00 0.00 92 1010.7
20221207045240 1 0.0 0.0 0.00 0.00 0.00 92 1011.0
20221207044238 1 0.0 0.0 0.00 0.00 0.00 92 1010.8
20221207043235 1 0.0 0.0 0.00 0.00 0.00 92 1010.6
20221207042230 1 315 0.0 1.6 0.00 0.00 0.00 92 1010.7
20221207041228 1 0.0 0.0 0.00 0.00 0.00 91 1011.0
20221207040245 1 0.0 0.0 0.00 0.00 0.00 92 1010.9
20221207035222 1 0.0 1.6 0.00 0.00 0.00 93 1011.2
20221207034219 0 0.0 0.0 0.00 0.00 0.00 93 1011.1
20221207033216 0 0.0 0.0 0.00 0.00 0.00 93 1011.5
20221207032212 1 0.0 0.0 0.00 0.00 0.00 93 1011.5
20221207031209 1 0.0 0.0 0.00 0.00 0.00 93 1011.3
20221207030205 0 0.0 0.0 0.00 0.00 0.00 93 1011.5
20221207025202 0 0.0 0.0 0.00 0.00 0.00 92 1011.6
20221207024159 1 0.0 0.0 0.00 0.00 0.00 92 1011.4
20221207023155 1 0.0 0.0 0.00 0.00 0.00 92 1011.7
20221207022151 1 0.0 0.0 0.00 0.00 0.00 92 1011.7
20221207021209 1 0.0 0.0 0.00 0.00 0.00 91 1011.6
20221207020144 1 0.0 0.0 0.00 0.00 0.00 92 1011.8
20221207015140 1 0.0 0.0 0.00 0.00 0.00 91 1011.8
20221207014137 1 0.0 0.0 0.00 0.00 0.00 91 1011.7
20221207013215 1 0.0 0.0 0.00 0.00 0.00 91 1011.9
20221207012152 1 0.0 0.0 0.00 0.00 0.00 91 1011.6
20221207011126 1 0.0 0.0 0.00 0.00 0.00 91 1011.7
20221207010123 1 0.0 0.0 0.00 0.00 0.00 91 1012.0
20221207005119 1 0.0 1.6 0.00 0.00 0.00 90 1011.7
20221207004115 1 0.0 1.6 0.00 0.00 0.00 91 1011.8
20221207003111 1 292 0.0 1.6 0.00 0.00 0.00 92 1012.0
20221207002108 1 0.0 0.0 0.00 0.00 0.00 91 1012.1
20221207001104 2 292 0.0 3.2 0.00 0.00 0.00 92 1012.2
20221207000100 1 0.0 0.0 0.00 0.00 0.00 93 1012.3